CW3186 Weather Reports


time (UTC)temp
F
wind
direction
speed
knots
gust
knots
rain 1hr
in
rain 24hr
in
rain mn
in
humidity
%
barometer
mb
20260505074004 55 147 0.0 3.5 0.00 0.00 0.00 84 1012.9
20260505073505 56 172 0.9 3.5 0.00 0.00 0.00 84 1012.8
20260505073008 56 192 1.7 5.2 0.00 0.00 0.00 83 1012.8
20260505072505 56 167 0.9 5.2 0.00 0.00 0.00 83 1012.8
20260505072005 56 192 0.9 2.6 0.00 0.00 0.00 83 1012.7
20260505071509 56 150 0.0 1.7 0.00 0.00 0.00 82 1012.7
20260505071005 56 175 0.0 3.5 0.00 0.00 0.00 82 1012.6
20260505070507 56 142 0.9 3.5 0.00 0.00 0.00 82 1012.7
20260505070014 56 232 0.9 5.2 0.00 0.00 0.00 82 1012.5
20260505065507 57 205 0.9 4.3 0.00 0.00 0.00 81 1012.4
20260505065007 57 191 0.9 5.2 0.00 0.00 0.00 81 1012.4
20260505064531 57 173 1.7 5.2 0.00 0.00 0.00 80 1012.3
20260505064010 57 204 0.0 5.2 0.00 0.00 0.00 80 1012.3
20260505063509 57 210 0.9 5.2 0.00 0.00 0.00 79 1012.3
20260505063003 58 180 0.0 5.2 0.00 0.00 0.00 79 1012.3
20260505062507 58 173 1.7 5.2 0.00 0.00 0.00 79 1012.3
20260505062003 58 215 0.9 3.5 0.00 0.00 0.00 78 1012.1
20260505061509 58 186 0.0 7.0 0.00 0.00 0.00 78 1012.1
20260505061004 59 147 1.7 7.0 0.00 0.00 0.00 77 1012.1
20260505060506 59 123 1.7 4.3 0.00 0.00 0.00 76 1012.0
20260505060010 60 337 0.9 4.3 0.00 0.00 0.00 76 1011.9
20260505055507 60 191 0.9 4.3 0.00 0.00 0.00 75 1011.8
20260505055007 60 173 0.9 8.7 0.00 0.00 0.00 74 1011.8
20260505054530 61 117 1.7 8.7 0.00 0.00 0.00 74 1011.7
20260505054008 61 150 1.7 4.3 0.00 0.00 0.00 74 1011.7
20260505053511 61 149 0.9 4.3 0.00 0.00 0.00 73 1011.7
20260505053023 61 192 0.9 1.7 0.00 0.00 0.00 73 1011.6
20260505052508 62 210 0.9 3.5 0.00 0.00 0.00 73 1011.5
20260505052007 62 163 0.0 3.5 0.00 0.00 0.00 73 1011.5
20260505051511 62 229 0.0 2.6 0.00 0.00 0.00 72 1011.5
20260505051004 62 200 0.0 2.6 0.00 0.00 0.00 72 1011.4
20260505050508 62 205 0.0 1.7 0.00 0.00 0.00 71 1011.4
20260505041522 66 263 0.0 2.6 0.00 0.00 0.00 65 1011.1
20260505041009 66 234 0.0 2.6 0.00 0.00 0.00 65 1011.0
20260505040511 66 259 0.9 4.3 0.00 0.00 0.00 64 1010.9
20260505040011 67 205 0.0 4.3 0.00 0.00 0.00 64 1010.8
20260505035507 67 213 0.9 2.6 0.00 0.00 0.00 63 1010.7
20260505035004 68 260 0.0 4.3 0.00 0.00 0.00 62 1010.7
20260505034524 68 246 0.9 4.3 0.00 0.00 0.00 61 1010.7
20260505034004 69 286 0.0 2.6 0.00 0.00 0.00 60 1010.6
20260505033506 69 232 0.9 5.2 0.00 0.00 0.00 59 1010.4
20260505033018 69 264 0.0 6.1 0.00 0.00 0.00 58 1010.3
20260505032507 70 236 1.7 6.1 0.00 0.00 0.00 57 1010.1
20260505032008 70 250 0.9 7.0 0.00 0.00 0.00 56 1010.1
20260505031519 71 230 0.9 7.0 0.00 0.00 0.00 55 1010.0
20260505031007 71 193 1.7 6.1 0.00 0.00 0.00 54 1010.0
20260505030508 72 263 0.9 5.2 0.00 0.00 0.00 53 1009.9
20260505030040 72 265 0.9 6.1 0.00 0.00 0.00 52 1010.0
20260505025513 73 251 1.7 4.3 0.00 0.00 0.00 52 1009.9
20260505025011 73 273 0.9 4.3 0.00 0.00 0.00 51 1009.9
20260505024517 74 226 0.9 6.1 0.00 0.00 0.00 50 1009.9
20260505024004 74 205 0.9 7.0 0.00 0.00 0.00 50 1009.8
20260505023504 75 281 2.6 7.0 0.00 0.00 0.00 48 1009.8
20260505023019 76 240 1.7 5.2 0.00 0.00 0.00 47 1009.8
20260505022506 77 253 0.9 3.5 0.00 0.00 0.00 47 1009.8
20260505022011 77 292 0.9 2.6 0.00 0.00 0.00 46 1009.8
20260505021523 78 208 0.0 2.6 0.00 0.00 0.00 46 1009.8
20260505021007 78 198 0.9 4.3 0.00 0.00 0.00 45 1009.8
20260505020503 79 194 0.9 5.2 0.00 0.00 0.00 45 1009.8
20260505020006 79 283 0.9 5.2 0.00 0.00 0.00 43 1009.8
20260505015504 80 207 0.0 3.5 0.00 0.00 0.00 43 1009.8
20260505015004 80 252 0.9 3.5 0.00 0.00 0.00 1009.8
20260505014513 80 196 0.9 2.6 0.00 0.00 0.00 1009.8
20260505014005 80 212 1.7 2.6 0.00 0.00 0.00 38 1009.8
20260505013504 81 221 0.9 2.6 0.00 0.00 0.00 38 1009.8
20260505013018 81 151 0.9 5.2 0.00 0.00 0.00 39 1009.8
20260505012509 81 161 1.7 6.1 0.00 0.00 0.00 38 1009.8
20260505012001 82 150 1.7 6.1 0.00 0.00 0.00 37 1009.8
20260505011502 82 232 0.0 2.6 0.00 0.00 0.00 37 1009.9
20260505011003 82 247 0.9 6.1 0.00 0.00 0.00 36 1009.9
20260505010502 83 260 1.7 6.1 0.00 0.00 0.00 36 1009.9
20260505010002 83 231 0.9 4.3 0.00 0.00 0.00 35 1010.0
20260505005501 83 274 0.0 3.5 0.00 0.00 0.00 36 1009.9
20260505005003 83 243 0.9 2.6 0.00 0.00 0.00 36 1009.9
20260505004518 83 224 0.0 2.6 0.00 0.00 0.00 36 1009.9
20260505004004 83 236 0.9 3.5 0.00 0.00 0.00 36 1010.0
20260505003504 82 162 0.9 6.1 0.00 0.00 0.00 35 1010.0
20260505003011 83 243 1.7 6.1 0.00 0.00 0.00 35 1010.1
20260505002509 82 247 0.9 5.2 0.00 0.00 0.00 35 1010.0
20260505002008 82 260 2.6 5.2 0.00 0.00 0.00 35 1010.0
20260505001515 81 207 0.9 6.1 0.00 0.00 0.00 36 1010.0
20260505001007 82 241 0.9 6.1 0.00 0.00 0.00 35 1010.1
20260505000507 82 288 3.5 8.7 0.00 0.00 0.00 35 1010.1
20260505000009 81 244 1.7 8.7 0.00 0.00 0.00 35 1010.1
20260504235503 81 161 0.9 5.2 0.00 0.00 0.00 35 1010.1
20260504235004 82 277 2.6 6.1 0.00 0.00 0.00 35 1010.2
20260504234507 82 271 4.3 7.0 0.00 0.00 0.00 34 1010.3
20260504234003 81 327 0.9 7.0 0.00 0.00 0.00 36 1010.2
20260504233504 81 311 2.6 7.0 0.00 0.00 0.00 35 1010.2
20260504233009 81 141 1.7 7.8 0.00 0.00 0.00 34 1010.2
20260504232504 82 330 3.5 7.8 0.00 0.00 0.00 34 1010.3
20260504232005 82 174 1.7 5.2 0.00 0.00 0.00 33 1010.2
20260504231511 81 266 0.9 6.1 0.00 0.00 0.00 33 1010.3
20260504231008 81 182 0.9 6.1 0.00 0.00 0.00 32 1010.2
20260504230507 81 198 1.7 6.1 0.00 0.00 0.00 33 1010.3
20260504230018 81 218 1.7 6.1 0.00 0.00 0.00 33 1010.2
20260504225508 81 197 1.7 7.0 0.00 0.00 0.00 33 1010.3
20260504225003 81 231 2.6 7.0 0.00 0.00 0.00 32 1010.4
20260504224505 81 148 2.6 6.1 0.00 0.00 0.00 32 1010.5
20260504224003 81 200 1.7 6.1 0.00 0.00 0.00 32 1010.6
20260504223504 81 145 2.6 7.0 0.00 0.00 0.00 31 1010.6
20260504223006 81 203 1.7 7.0 0.00 0.00 0.00 31 1010.7
20260504222504 81 165 1.7 7.8 0.00 0.00 0.00 31 1010.8
20260504222007 81 192 1.7 7.8 0.00 0.00 0.00 30 1010.9
20260504221513 81 163 1.7 5.2 0.00 0.00 0.00 32 1010.9
20260504221005 81 283 1.7 5.2 0.00 0.00 0.00 31 1010.9
20260504220505 81 263 1.7 3.5 0.00 0.00 0.00 31 1010.9
20260504220018 81 165 0.9 6.1 0.00 0.00 0.00 34 1010.9
20260504215509 81 167 2.6 6.1 0.00 0.00 0.00 32 1010.9
20260504215015 80 261 2.6 5.2 0.00 0.00 0.00 36 1010.9
20260504214520 80 346 1.7 7.0 0.00 0.00 0.00 35 1011.0
20260504214009 80 255 1.7 7.0 0.00 0.00 0.00 37 1011.2
20260504213504 80 218 0.9 4.3 0.00 0.00 0.00 37 1011.1
20260504213019 80 189 1.7 6.1 0.00 0.00 0.00 36 1011.1
20260504212503 80 246 2.6 6.1 0.00 0.00 0.00 35 1011.2
20260504212004 80 186 1.7 6.1 0.00 0.00 0.00 32 1011.2
20260504211513 80 109 0.9 6.1 0.00 0.00 0.00 31 1011.2
20260504211004 80 203 2.6 7.8 0.00 0.00 0.00 31 1011.3
20260504210512 79 169 1.7 9.6 0.00 0.00 0.00 33 1011.2
20260504210018 80 138 3.5 9.6 0.00 0.00 0.00 33 1011.3
20260504205507 80 209 1.7 7.0 0.00 0.00 0.00 34 1011.3
20260504205007 79 209 0.9 5.2 0.00 0.00 0.00 35 1011.3
20260504204518 79 233 2.6 6.1 0.00 0.00 0.00 33 1011.2
20260504204008 79 186 2.6 6.1 0.00 0.00 0.00 34 1011.2
20260504203513 78 214 0.9 6.1 0.00 0.00 0.00 34 1011.2
20260504203022 79 223 2.6 6.1 0.00 0.00 0.00 35 1011.1
20260504202509 79 218 2.6 5.2 0.00 0.00 0.00 35 1011.1
20260504202004 79 145 1.7 7.0 0.00 0.00 0.00 37 1011.1
20260504201509 79 267 1.7 7.0 0.00 0.00 0.00 36 1011.1
20260504201003 79 126 0.9 4.3 0.00 0.00 0.00 40 1011.2
20260504200503 79 114 0.9 4.3 0.00 0.00 0.00 38 1011.2
20260504200013 78 200 0.9 4.3 0.00 0.00 0.00 39 1011.2
20260504195507 78 216 0.9 4.3 0.00 0.00 0.00 39 1011.1
20260504195004 78 197 0.9 5.2 0.00 0.00 0.00 1011.1
20260504194523 78 331 1.7 5.2 0.00 0.00 0.00 36 1011.1
20260504194009 78 140 0.9 5.2 0.00 0.00 0.00 36 1011.1
20260504193020 77 152 1.7 5.2 0.00 0.00 0.00 36 1011.3
20260504192508 77 161 1.7 5.2 0.00 0.00 0.00 36 1011.3
20260504192009 77 252 1.7 4.3 0.00 0.00 0.00 37 1011.4
20260504191537 77 127 0.9 4.3 0.00 0.00 0.00 38 1011.4
20260504191005 76 139 1.7 8.7 0.00 0.00 0.00 39 1011.3
20260504190508 75 146 0.9 8.7 0.00 0.00 0.00 40 1011.5
20260504190019 75 208 3.5 7.0 0.00 0.00 0.00 1011.5
20260504185503 75 178 2.6 7.0 0.00 0.00 0.00 1011.5
20260504185007 75 121 3.5 7.0 0.00 0.00 0.00 1011.6
20260504184532 76 171 2.6 7.0 0.00 0.00 0.00 1011.5
20260504184010 77 166 2.6 6.1 0.00 0.00 0.00 40 1011.6
20260504183508 76 241 0.9 6.1 0.00 0.00 0.00 40 1011.5
20260504183023 76 177 1.7 7.0 0.00 0.00 0.00 43 1011.5
20260504182512 75 126 3.5 7.0 0.00 0.00 0.00 41 1011.4
20260504182010 75 162 2.6 6.1 0.00 0.00 0.00 43 1011.4
20260504181523 75 173 1.7 6.1 0.00 0.00 0.00 43 1011.5
20260504181010 75 129 2.6 6.1 0.00 0.00 0.00 43 1011.5
20260504180512 74 298 0.9 3.5 0.00 0.00 0.00 47 1011.5
20260504180032 73 50 0.9 5.2 0.00 0.00 0.00 1011.5
20260504175504 73 55 2.6 5.2 0.00 0.00 0.00 53 1011.6
20260504175005 73 68 0.9 2.6 0.00 0.00 0.00 53 1011.6
20260504174513 72 352 0.9 2.6 0.00 0.00 0.00 53 1011.7
20260504174007 72 49 0.9 2.6 0.00 0.00 0.00 54 1011.6
20260504173506 72 58 1.7 3.5 0.00 0.00 0.00 53 1011.6
20260504173020 72 107 1.7 3.5 0.00 0.00 0.00 52 1011.6
20260504172507 72 49 1.7 2.6 0.00 0.00 0.00 55 1011.6
20260504172008 72 105 0.9 2.6 0.00 0.00 0.00 54 1011.7
20260504171522 72 67 0.9 3.5 0.00 0.00 0.00 53 1011.6
20260504171011 71 263 1.7 3.5 0.00 0.00 0.00 50 1011.6
20260504170504 71 203 1.7 3.5 0.00 0.00 0.00 51 1011.6
20260504151002 62 183 0.0 0.9 0.00 0.00 0.00 71 1011.1
20260504150506 62 183 0.0 0.9 0.00 0.00 0.00 71 1011.0
20260504141010 55 183 0.0 0.0 0.00 0.00 0.00 82 1010.8
20260504140506 54 183 0.0 0.9 0.00 0.00 0.00 82 1010.8
20260504130510 52 183 0.0 0.0 0.00 0.00 0.00 82 1010.2
20260504110504 54 183 0.0 0.0 0.00 0.00 0.00 76 1010.0
20260504100503 56 183 0.0 0.9 0.00 0.00 0.00 71 1010.0
20260504082007 59 183 0.0 0.0 0.00 0.00 0.00 67 1009.9
20260504081524 59 183 0.0 0.0 0.00 0.00 0.00 67 1009.9
20260504081010 59 183 0.0 0.0 0.00 0.00 0.00 68 1009.9
20260504080504 59 183 0.0 0.0 0.00 0.00 0.00 67 1009.9